Regional Weather Roundup
Issued by NWS

Home | Current Version | Previous Version | Graphics & Text | Print | Product List | Glossary Off
Versions: 1 2 3 4 5 6 7 8 9 10 11 12 13 14 15 16 17 18 19 20 21 22 23 24 25 26 27 28 29 30 31 32 33 34 35 36 37 38 39 40 41 42 43 44 45 46 47 48 49 50

041
ASUS43 KDMX 060506
RWRIA

WEATHER ROUNDUP FOR IOWA
NATIONAL WEATHER SERVICE DES MOINES IA
1100 PM CST MON DEC 05 2016

NOTE: "FAIR" INDICATES FEW OR NO CLOUDS BELOW 12,000 FEET WITH NO
SIGNIFICANT WEATHER AND/OR OBSTRUCTIONS TO VISIBILITY.

* - THESE STATIONS ARE NOT NWS STATIONS...THUS NOT UNDER NWS
QUALITY CONTROL.  THEY ALSO DO NOT REPORT WEATHER SUCH
AS PRECIPITATION OR FOG.

IAZ001>003-012>014-020>022-031>034-043>046-060600-
   NORTHWEST IOWA

CITY           SKY/WX    TMP DP  RH WIND       PRES   REMARKS
CARROLL *      CLOUDY    36  34  93 NW15G23   29.78R WCI  26
CHEROKEE *     CLOUDY    32  27  80 W13G28    29.79R WCI  22
DENISON *      CLOUDY    34  30  86 NW10      29.79R WCI  26
LE MARS *      CLOUDY    32  25  74 NW17G26   29.82S WCI  21
ORANGE CITY *  CLOUDY    28  25  86 NW21G32   29.79R WCI  15
SHELDON *      CLOUDY    30  27  86 W26G33    29.75S WCI  16
SIOUX CITY     CLOUDY    32  22  66 NW20G31   29.83R WCI  20
SPENCER        CLOUDY    32  26  78 W33G40    29.75R WCI  17
STORM LAKE *   CLOUDY    32  27  80 NW21      29.77R WCI  20
$$

IAZ055>058-069>071-079>083-090>094-060600-
   SOUTHWEST IOWA

CITY           SKY/WX    TMP DP  RH WIND       PRES   REMARKS
ATLANTIC *     MIX PCPN  37  34  87 NW16G25   29.79R WCI  28
AUDUBON *      RAIN      36  32  87 NW14G20   29.79R WCI  27
CLARINDA *       N/A     37  36  93 SW5       29.78R WCI  34
COUNCIL BLFS * LGT SNOW  34  30  86 N17G28    29.81R WCI  23
CRESTON *      CLOUDY    37  34  87 S10       29.76R WCI  30
HARLAN  *      CLOUDY    36  32  87 NW22      29.83R WCI  24
LAMONI         PTCLDY    34  32  92 SE6       29.77R WCI  29
RED OAK *      CLOUDY    39  36  87 N17G28    29.79R WCI  30
SHENANDOAH *   CLOUDY    41  36  81 N15G23    29.80R
$$

IAZ047>049-059>061-072>074-084-060600-
   CENTRAL IOWA

CITY           SKY/WX    TMP DP  RH WIND       PRES   REMARKS
AMES           CLOUDY    37  37 100 S12       29.77S WCI  29
ANKENY *       CLOUDY    37 N/A N/A S12       29.78S WCI  30
BOONE *        CLOUDY    37  37 100 S8        29.75R WCI  31
CHARITON *       N/A     37  36  93 S12       29.78S WCI  30
DES MOINES     CLOUDY    39  35  86 S10       29.78R WCI  32
GRINNELL*      CLOUDY    35  34  95 SE10      29.81R FOG     WCI  27
KNOXVILLE *    CLOUDY    37  34  87 S9G18     29.78S WCI  31
MARSHALLTOWN   CLOUDY    35  34  96 S14       29.78S FOG     WCI  26
NEWTON *       CLOUDY    36  34  93 S10       29.79S FOG     WCI  28
PELLA *        CLOUDY    37  36  93 S6        29.81S FOG     WCI  33
PERRY *        CLOUDY    39  38  96 S8        29.76R WCI  34
$$

IAZ004>006-015-016-023>025-035-036-060600-
   NORTH CENTRAL IOWA

CITY           SKY/WX    TMP DP  RH WIND       PRES   REMARKS
ALGONA *       CLOUDY    37  32  81 W15       29.76R WCI  28
CLARION *      CLOUDY    37  37 100 SW14      29.77R FOG     WCI  29
ESTHERVILLE    CLOUDY    32  28  85 W16G30    29.73R WCI  21
FORT DODGE *   CLOUDY    37  30  75 W12       29.78R WCI  30
MASON CITY     CLOUDY    34  33  96 S16       29.75S FOG     WCI  24
FOREST CITY *  CLOUDY    36  36 100 SW8       29.74R WCI  29
WEBSTER CITY * CLOUDY    37  37 100 S12       29.74R WCI  30
IOWA FALLS *   CLOUDY    35  33  94 S15       29.77S FOG     WCI  25
$$

IAZ007>011-017>019-026>030-037>042-050>054-066-060600-
   NORTHEAST IOWA

CITY           SKY/WX    TMP DP  RH WIND       PRES   REMARKS
CEDAR RAPIDS   CLOUDY    33  33 100 SE10      29.82R WCI  25
CHARLES CITY * CLOUDY    32  32 100 S17       29.77S FOG     WCI  21
CLINTON *      CLOUDY    32  30  92 SE17      29.88F WCI  21
DECORAH *      CLOUDY    32  30  93 S9G17     29.79S WCI  24
DUBUQUE        LGT SNOW  29  29 100 SE14      29.85F FOG     WCI  18
MONTICELLO *   CLOUDY    32  30  93 SE14      29.84S WCI  22
OELWEIN *      CLOUDY    32  32 100 S16       29.81F FOG     WCI  21
WATERLOO       CLOUDY    33  31  92 S15       29.80S FOG     WCI  23
$$

IAZ064-065-067-068-078-060600-
   EAST CENTRAL IOWA

CITY           SKY/WX    TMP DP  RH WIND       PRES   REMARKS
DAVENPORT      CLOUDY    32  30  92 SE17      29.86F WCI  21
IOWA CITY      CLOUDY    34  32  92 SE12      29.86S WCI  25
MUSCATINE *    CLOUDY    36  32  87 SE9G16    29.86S WCI  29
QUAD CITIES    CLOUDY    34  30  85 SE13      29.87S WCI  25
$$

IAZ062-063-075>077-085>089-095>099-060600-
   SOUTHEAST IOWA

CITY           SKY/WX    TMP DP  RH WIND       PRES   REMARKS
BURLINGTON     CLOUDY    36  34  92 SE9       29.84F WCI  29
FAIRFIELD *    CLOUDY    37  34  87 SE12      29.82R WCI  30
FORT MADISON * CLOUDY    36  36 100 SE9       29.84F WCI  29
KEOKUK *       CLOUDY    36  36 100 SE10      29.82F WCI  28
OSKALOOSA *    CLOUDY    37  35  94 SE12      29.82S FOG     WCI  29
CENTERVILLE *  CLOUDY    36  36 100 SE10      29.81R WCI  28
OTTUMWA        CLOUDY    37  34  89 S12       29.81R WCI  29
WASHINGTON *   CLOUDY    34  34 100 SE13      29.84R WCI  25
$$

ABBREVIATIONS USED IN REMARKS
   TC - TEMPERATURES IN CELSIUS
  WCI - WIND CHILL INDEX
   HX - HEAT INDEX
  VSB - VISIBILITY
$$





USA.gov is the U.S. government's official web portal to all federal, state and local government web resources and services.